Time,TemperatureF,DewpointF,PressureIn,WindDirection,WindDirectionDegrees,WindSpeedMPH,WindSpeedGustMPH,Humidity,HourlyPrecipIn,Conditions,Clouds,dailyrainin,SolarRadiationWatts/m^2,SoftwareType,DateUTC
2013-05-09 00:02:00,32.0,32.0,-100.00,North,351,0.0,2.0,98,0.00,,,0.57,0.000000,,2013-05-09 06:02:00,
2013-05-09 00:12:00,32.0,32.0,-100.00,North,351,0.0,2.0,98,0.00,,,0.57,0.000000,,2013-05-09 06:12:00,
2013-05-09 00:21:00,32.0,32.0,-100.00,North,351,0.0,2.0,98,0.00,,,0.57,0.000000,,2013-05-09 06:21:00,
2013-05-09 00:42:00,32.0,32.0,-100.00,East,85,0.0,0.0,98,0.00,,,0.57,0.000000,,2013-05-09 06:42:00,
2013-05-09 00:52:00,32.0,32.0,-100.00,East,85,0.0,0.0,98,0.00,,,0.57,0.000000,,2013-05-09 06:52:00,
2013-05-09 01:01:00,32.0,32.0,-100.00,East,85,0.0,0.0,98,0.00,,,0.57,0.000000,,2013-05-09 07:01:00,
2013-05-09 01:12:00,32.0,32.0,-100.00,East,85,0.0,0.0,98,0.00,,,0.57,0.000000,,2013-05-09 07:12:00,
2013-05-09 01:21:00,32.0,32.0,-100.00,East,85,0.0,0.0,98,0.00,,,0.57,0.000000,,2013-05-09 07:21:00,
2013-05-09 01:43:00,31.0,31.0,-100.00,SSE,165,0.0,2.0,98,0.00,,,0.57,0.000000,,2013-05-09 07:43:00,
2013-05-09 01:52:00,31.0,31.0,-100.00,SSE,165,0.0,2.0,98,0.00,,,0.57,0.000000,,2013-05-09 07:52:00,
2013-05-09 02:02:00,31.0,31.0,-100.00,SSE,165,0.0,2.0,98,0.00,,,0.57,0.000000,,2013-05-09 08:02:00,
2013-05-09 02:11:00,31.0,31.0,-100.00,SSE,165,0.0,2.0,98,0.00,,,0.57,0.000000,,2013-05-09 08:11:00,
2013-05-09 02:21:00,31.0,31.0,-100.00,SSE,165,0.0,2.0,98,0.00,,,0.57,0.000000,,2013-05-09 08:21:00,
2013-05-09 02:42:00,31.0,31.0,-100.00,NNW,346,0.0,0.0,98,0.00,,,0.57,0.000000,,2013-05-09 08:42:00,
2013-05-09 02:52:00,31.0,31.0,-100.00,NNW,346,0.0,0.0,98,0.00,,,0.57,0.000000,,2013-05-09 08:52:00,
2013-05-09 03:02:00,31.0,31.0,-100.00,NNW,346,0.0,0.0,98,0.00,,,0.57,0.000000,,2013-05-09 09:02:00,
2013-05-09 03:11:00,31.0,31.0,-100.00,NNW,346,0.0,0.0,98,0.00,,,0.57,0.000000,,2013-05-09 09:11:00,
2013-05-09 03:21:00,31.0,31.0,-100.00,NNW,346,0.0,0.0,98,0.00,,,0.57,0.000000,,2013-05-09 09:21:00,
2013-05-09 03:43:00,31.0,31.0,-100.00,South,187,0.0,0.0,98,0.00,,,0.57,0.000000,,2013-05-09 09:43:00,
2013-05-09 03:53:00,31.0,31.0,-100.00,South,187,0.0,0.0,98,0.00,,,0.57,0.000000,,2013-05-09 09:53:00,
2013-05-09 04:02:00,31.0,31.0,-100.00,South,187,0.0,0.0,98,0.00,,,0.57,0.000000,,2013-05-09 10:02:00,
2013-05-09 04:12:00,31.0,31.0,-100.00,South,187,0.0,0.0,98,0.00,,,0.57,0.000000,,2013-05-09 10:12:00,
2013-05-09 04:22:00,31.0,31.0,-100.00,South,187,0.0,0.0,98,0.00,,,0.57,0.000000,,2013-05-09 10:22:00,
2013-05-09 04:42:00,31.0,31.0,-100.00,NW,308,0.0,0.0,98,0.00,,,0.57,0.000000,,2013-05-09 10:42:00,
2013-05-09 04:52:00,31.0,31.0,-100.00,NW,308,0.0,0.0,98,0.00,,,0.57,0.000000,,2013-05-09 10:52:00,
2013-05-09 05:02:00,31.0,31.0,-100.00,NW,308,0.0,0.0,98,0.00,,,0.57,0.000000,,2013-05-09 11:02:00,
2013-05-09 05:12:00,31.0,31.0,-100.00,NW,308,0.0,0.0,98,0.00,,,0.57,0.000000,,2013-05-09 11:12:00,
2013-05-09 05:22:00,31.0,31.0,-100.00,NW,308,0.0,0.0,98,0.00,,,0.57,0.000000,,2013-05-09 11:22:00,
2013-05-09 05:42:00,31.0,31.0,-100.00,NW,304,0.0,0.0,98,0.00,,,0.57,0.000000,,2013-05-09 11:42:00,
2013-05-09 05:52:00,31.0,31.0,-100.00,NW,304,0.0,0.0,98,0.00,,,0.57,0.000000,,2013-05-09 11:52:00,
2013-05-09 06:01:00,31.0,31.0,-100.00,NW,304,0.0,0.0,98,0.00,,,0.57,0.000000,,2013-05-09 12:01:00,
2013-05-09 06:11:00,31.0,31.0,-100.00,NW,304,0.0,0.0,98,0.00,,,0.57,0.000000,,2013-05-09 12:11:00,
2013-05-09 06:22:00,31.0,31.0,-100.00,NW,304,0.0,0.0,98,0.00,,,0.57,0.000000,,2013-05-09 12:22:00,
2013-05-09 06:43:00,32.0,32.0,-100.00,NW,304,0.0,0.0,98,0.00,,,0.57,0.000000,,2013-05-09 12:43:00,
2013-05-09 06:52:00,32.0,32.0,-100.00,NW,304,0.0,0.0,98,0.00,,,0.57,0.000000,,2013-05-09 12:52:00,
2013-05-09 07:01:00,32.0,32.0,-100.00,NW,304,0.0,0.0,98,0.00,,,0.57,0.000000,,2013-05-09 13:01:00,
2013-05-09 07:12:00,32.0,32.0,-100.00,NW,304,0.0,0.0,98,0.00,,,0.57,0.000000,,2013-05-09 13:12:00,
2013-05-09 07:21:00,32.0,32.0,-100.00,NW,304,0.0,0.0,98,0.00,,,0.57,0.000000,,2013-05-09 13:21:00,
2013-05-09 07:42:00,33.0,32.0,-100.00,NNW,342,0.0,0.0,98,0.00,,,0.57,7.000000,,2013-05-09 13:42:00,
2013-05-09 07:52:00,33.0,32.0,-100.00,NNW,342,0.0,0.0,98,0.00,,,0.57,7.000000,,2013-05-09 13:52:00,
2013-05-09 08:01:00,33.0,32.0,-100.00,NNW,342,0.0,0.0,98,0.00,,,0.57,7.000000,,2013-05-09 14:01:00,
2013-05-09 08:11:00,33.0,32.0,-100.00,NNW,342,0.0,0.0,98,0.00,,,0.57,7.000000,,2013-05-09 14:11:00,
2013-05-09 08:21:00,33.0,32.0,-100.00,NNW,342,0.0,0.0,98,0.00,,,0.57,7.000000,,2013-05-09 14:21:00,
2013-05-09 08:42:00,36.0,34.0,-100.00,NW,305,0.0,1.0,91,0.00,,,0.57,23.000000,,2013-05-09 14:42:00,
2013-05-09 08:52:00,36.0,34.0,-100.00,NW,305,0.0,1.0,91,0.00,,,0.57,23.000000,,2013-05-09 14:52:00,
2013-05-09 09:01:00,36.0,34.0,-100.00,NW,305,0.0,1.0,91,0.00,,,0.57,23.000000,,2013-05-09 15:01:00,
2013-05-09 09:11:00,36.0,34.0,-100.00,NW,305,0.0,1.0,91,0.00,,,0.57,23.000000,,2013-05-09 15:11:00,
2013-05-09 09:22:00,36.0,34.0,-100.00,NW,305,0.0,1.0,91,0.00,,,0.57,23.000000,,2013-05-09 15:22:00,
2013-05-09 09:43:00,35.0,33.0,-100.00,WNW,296,2.0,3.0,92,0.00,,,0.57,39.000000,,2013-05-09 15:43:00,
2013-05-09 09:53:00,35.0,33.0,-100.00,WNW,296,2.0,3.0,92,0.00,,,0.57,39.000000,,2013-05-09 15:53:00,
2013-05-09 10:03:00,35.0,33.0,-100.00,WNW,296,2.0,3.0,92,0.00,,,0.57,39.000000,,2013-05-09 16:03:00,
2013-05-09 10:12:00,35.0,33.0,-100.00,WNW,296,2.0,3.0,92,0.00,,,0.57,39.000000,,2013-05-09 16:12:00,
2013-05-09 10:22:00,35.0,33.0,-100.00,WNW,296,2.0,3.0,92,0.00,,,0.57,39.000000,,2013-05-09 16:22:00,
2013-05-09 10:42:00,38.0,34.0,-100.00,WNW,285,2.0,3.0,86,0.00,,,0.57,81.000000,,2013-05-09 16:42:00,
2013-05-09 10:53:00,38.0,34.0,-100.00,WNW,285,2.0,3.0,86,0.00,,,0.57,81.000000,,2013-05-09 16:53:00,
2013-05-09 11:02:00,38.0,34.0,-100.00,WNW,285,2.0,3.0,86,0.00,,,0.57,81.000000,,2013-05-09 17:02:00,
2013-05-09 11:12:00,38.0,34.0,-100.00,WNW,285,2.0,3.0,86,0.00,,,0.57,81.000000,,2013-05-09 17:12:00,
2013-05-09 11:21:00,38.0,34.0,-100.00,WNW,285,2.0,3.0,86,0.00,,,0.57,81.000000,,2013-05-09 17:21:00,
2013-05-09 11:42:00,49.0,36.0,-100.00,WSW,242,2.0,2.0,61,0.00,,,0.56,408.000000,,2013-05-09 17:42:00,
2013-05-09 11:55:00,49.0,36.0,-100.00,WSW,242,2.0,2.0,61,0.00,,,0.56,408.000000,,2013-05-09 17:55:00,
2013-05-09 12:01:00,49.0,36.0,-100.00,WSW,242,2.0,2.0,61,0.00,,,0.56,408.000000,,2013-05-09 18:01:00,
2013-05-09 12:12:00,49.0,36.0,-100.00,WSW,242,2.0,2.0,61,0.00,,,0.56,408.000000,,2013-05-09 18:12:00,
2013-05-09 12:21:00,49.0,36.0,-100.00,WSW,242,2.0,2.0,61,0.00,,,0.56,408.000000,,2013-05-09 18:21:00,
2013-05-09 12:52:00,52.0,35.0,-100.00,North,351,1.0,3.0,52,0.00,,,0.56,699.000000,,2013-05-09 18:52:00,
2013-05-09 13:01:00,52.0,35.0,-100.00,North,351,1.0,3.0,52,0.00,,,0.56,699.000000,,2013-05-09 19:01:00,
2013-05-09 13:12:00,52.0,35.0,-100.00,North,351,1.0,3.0,52,0.00,,,0.56,699.000000,,2013-05-09 19:12:00,
2013-05-09 13:21:00,52.0,35.0,-100.00,North,351,1.0,3.0,52,0.00,,,0.56,699.000000,,2013-05-09 19:21:00,
2013-05-09 13:42:00,50.0,31.0,-100.00,North,354,2.0,5.0,47,0.30,,,0.86,1050.000000,,2013-05-09 19:42:00,
2013-05-09 13:52:00,50.0,31.0,-100.00,North,354,2.0,5.0,47,0.30,,,0.86,1050.000000,,2013-05-09 19:52:00,
2013-05-09 14:01:00,50.0,31.0,-100.00,North,354,2.0,5.0,47,0.30,,,0.86,1050.000000,,2013-05-09 20:01:00,
2013-05-09 14:11:00,50.0,31.0,-100.00,North,354,2.0,5.0,47,0.30,,,0.86,1050.000000,,2013-05-09 20:11:00,
2013-05-09 14:22:00,50.0,31.0,-100.00,North,354,2.0,5.0,47,0.30,,,0.86,1050.000000,,2013-05-09 20:22:00,
2013-05-09 14:42:00,46.0,30.0,-100.00,North,4,2.0,4.0,54,0.16,,,0.77,724.000000,,2013-05-09 20:42:00,
2013-05-09 14:52:00,46.0,30.0,-100.00,North,4,2.0,4.0,54,0.16,,,0.77,724.000000,,2013-05-09 20:52:00,
2013-05-09 15:02:00,46.0,30.0,-100.00,North,4,2.0,4.0,54,0.16,,,0.77,724.000000,,2013-05-09 21:02:00,
2013-05-09 15:12:00,46.0,30.0,-100.00,North,4,2.0,4.0,54,0.16,,,0.77,724.000000,,2013-05-09 21:12:00,
2013-05-09 15:22:00,46.0,30.0,-100.00,North,4,2.0,4.0,54,0.16,,,0.77,724.000000,,2013-05-09 21:22:00,
2013-05-09 15:43:00,42.0,31.0,-100.00,East,96,2.0,5.0,64,0.01,,,0.60,398.000000,,2013-05-09 21:43:00,
2013-05-09 15:53:00,42.0,31.0,-100.00,East,96,2.0,5.0,64,0.01,,,0.60,398.000000,,2013-05-09 21:53:00,
2013-05-09 16:03:00,42.0,31.0,-100.00,East,96,2.0,5.0,64,0.01,,,0.60,398.000000,,2013-05-09 22:03:00,
2013-05-09 16:13:00,42.0,31.0,-100.00,East,96,2.0,5.0,64,0.01,,,0.60,398.000000,,2013-05-09 22:13:00,
2013-05-09 16:22:00,42.0,31.0,-100.00,East,96,2.0,5.0,64,0.01,,,0.60,398.000000,,2013-05-09 22:22:00,
2013-05-09 16:42:00,42.0,31.0,-100.00,NE,49,4.0,8.0,64,0.00,,,0.55,572.000000,,2013-05-09 22:42:00,
2013-05-09 16:52:00,42.0,31.0,-100.00,NE,49,4.0,8.0,64,0.00,,,0.55,572.000000,,2013-05-09 22:52:00,
2013-05-09 17:02:00,42.0,31.0,-100.00,NE,49,4.0,8.0,64,0.00,,,0.55,572.000000,,2013-05-09 23:02:00,
2013-05-09 17:12:00,42.0,31.0,-100.00,NE,49,4.0,8.0,64,0.00,,,0.55,572.000000,,2013-05-09 23:12:00,
2013-05-09 17:21:00,42.0,31.0,-100.00,NE,49,4.0,8.0,64,0.00,,,0.55,572.000000,,2013-05-09 23:21:00,
2013-05-09 17:42:00,41.0,32.0,-100.00,WNW,290,2.0,7.0,71,0.00,,,0.55,304.000000,,2013-05-09 23:42:00,
2013-05-09 17:52:00,41.0,32.0,-100.00,WNW,290,2.0,7.0,71,0.00,,,0.55,304.000000,,2013-05-09 23:52:00,
2013-05-09 18:01:00,41.0,32.0,-100.00,WNW,290,2.0,7.0,71,0.00,,,0.55,304.000000,,2013-05-10 00:01:00,
2013-05-09 18:11:00,41.0,32.0,-100.00,WNW,290,2.0,7.0,71,0.00,,,0.55,304.000000,,2013-05-10 00:11:00,
2013-05-09 18:22:00,41.0,32.0,-100.00,WNW,290,2.0,7.0,71,0.00,,,0.55,304.000000,,2013-05-10 00:22:00,
2013-05-09 18:42:00,41.0,31.0,-100.00,ESE,122,2.0,4.0,68,0.00,,,0.55,323.000000,,2013-05-10 00:42:00,
2013-05-09 18:52:00,41.0,31.0,-100.00,ESE,122,2.0,4.0,68,0.00,,,0.55,323.000000,,2013-05-10 00:52:00,
2013-05-09 19:01:00,41.0,31.0,-100.00,ESE,122,2.0,4.0,68,0.00,,,0.55,323.000000,,2013-05-10 01:01:00,
2013-05-09 19:11:00,41.0,31.0,-100.00,ESE,122,2.0,4.0,68,0.00,,,0.55,323.000000,,2013-05-10 01:11:00,
2013-05-09 19:21:00,41.0,31.0,-100.00,ESE,122,2.0,4.0,68,0.00,,,0.55,323.000000,,2013-05-10 01:21:00,
2013-05-09 19:42:00,38.0,34.0,-100.00,WNW,283,2.0,3.0,85,0.00,,,0.51,76.000000,,2013-05-10 01:42:00,
2013-05-09 19:52:00,38.0,34.0,-100.00,WNW,283,2.0,3.0,85,0.00,,,0.51,76.000000,,2013-05-10 01:52:00,
2013-05-09 20:02:00,38.0,34.0,-100.00,WNW,283,2.0,3.0,85,0.00,,,0.51,76.000000,,2013-05-10 02:02:00,
2013-05-09 20:11:00,38.0,34.0,-100.00,WNW,283,2.0,3.0,85,0.00,,,0.51,76.000000,,2013-05-10 02:11:00,
2013-05-09 20:21:00,38.0,34.0,-100.00,WNW,283,2.0,3.0,85,0.00,,,0.51,76.000000,,2013-05-10 02:21:00,
2013-05-09 20:42:00,33.0,29.0,-100.00,West,277,2.0,3.0,86,0.00,,,0.47,15.000000,,2013-05-10 02:42:00,
2013-05-09 20:52:00,33.0,29.0,-100.00,West,277,2.0,3.0,86,0.00,,,0.47,15.000000,,2013-05-10 02:52:00,
2013-05-09 21:01:00,33.0,29.0,-100.00,West,277,2.0,3.0,86,0.00,,,0.47,15.000000,,2013-05-10 03:01:00,
2013-05-09 21:11:00,33.0,29.0,-100.00,West,277,2.0,3.0,86,0.00,,,0.47,15.000000,,2013-05-10 03:11:00,
2013-05-09 21:21:00,33.0,29.0,-100.00,West,277,2.0,3.0,86,0.00,,,0.47,15.000000,,2013-05-10 03:21:00,
2013-05-09 21:23:00,33.0,30.0,-100.00,West,262,2.0,3.0,88,0.00,,,0.47,0.000000,,2013-05-10 03:23:00,
2013-05-09 21:43:00,33.0,30.0,-100.00,West,262,2.0,3.0,88,0.00,,,0.47,0.000000,,2013-05-10 03:43:00,
2013-05-09 21:53:00,33.0,30.0,-100.00,West,262,2.0,3.0,88,0.00,,,0.47,0.000000,,2013-05-10 03:53:00,
2013-05-09 22:03:00,33.0,30.0,-100.00,West,262,2.0,3.0,88,0.00,,,0.47,0.000000,,2013-05-10 04:03:00,
2013-05-09 22:12:00,33.0,30.0,-100.00,West,262,2.0,3.0,88,0.00,,,0.47,0.000000,,2013-05-10 04:12:00,
2013-05-09 22:43:00,32.0,29.0,-100.00,WNW,293,2.0,3.0,90,0.00,,,0.47,0.000000,,2013-05-10 04:43:00,
2013-05-09 22:53:00,32.0,29.0,-100.00,WNW,293,2.0,3.0,90,0.00,,,0.47,0.000000,,2013-05-10 04:53:00,
2013-05-09 23:02:00,32.0,29.0,-100.00,WNW,293,2.0,3.0,90,0.00,,,0.47,0.000000,,2013-05-10 05:02:00,
2013-05-09 23:12:00,32.0,29.0,-100.00,WNW,293,2.0,3.0,90,0.00,,,0.47,0.000000,,2013-05-10 05:12:00,
2013-05-09 23:22:00,32.0,29.0,-100.00,WNW,293,2.0,3.0,90,0.00,,,0.47,0.000000,,2013-05-10 05:22:00,
2013-05-09 23:42:00,30.0,28.0,-100.00,WNW,286,2.0,3.0,93,0.00,,,0.47,0.000000,,2013-05-10 05:42:00,
2013-05-09 23:52:00,30.0,28.0,-100.00,WNW,286,2.0,3.0,93,0.00,,,0.47,0.000000,,2013-05-10 05:52:00,